Date String (YYYY-MM-DD hh:mm:ss) UTC,Instrument flags,absolute air pressure of the measurement (hPa),sample flow rate (lpm),inlet stack bypass flow (lpm),air temperature of the measurement (°C),ambient temperature measured by the external sensor (°C),aerosol sample conditioner tube jacket temperature (°C),OPC LED temperature (°C),internal box temperature (°C),relative humidity of the measurement (%),span deviation,mass concentration of particles derived from Lorenz-Mie calculation of OPC scattering (μg/m³),mass concentration of particles derived from Lorenz-Mie calculation of OPC scattering (μg/m³),mass concentration of particles derived from Lorenz-Mie calculation of OPC scattering (μg/m³)
DateTimeUTC,F1_M11,P_M11,Q1_M11,Q2_M11,T1_M11,T2_M11,T3_M11,T4_M11,T5_M11,U1_M11,ZSPAN_M11,X0_M11,X2_M11,X1_M11
2023-07-04 19:00:00,SystemResetWarning,0832.5,5.00,000.00,028.9,025.8,000.0,037.1,030.4,25.9,0000.0,0007.98,0003.67,0003.36
2023-07-04 19:01:00,SystemResetWarning,0832.5,4.99,000.00,028.9,026.1,000.0,037.2,030.3,24.8,0000.0,0007.94,0003.66,0003.36
2023-07-04 19:02:00,SystemResetWarning,0832.5,5.00,000.00,028.9,026.4,000.0,037.2,030.4,24.7,0000.0,0007.91,0003.64,0003.37
2023-07-04 19:03:00,SystemResetWarning,0832.4,4.99,000.00,028.9,026.8,000.0,037.3,030.5,24.7,0000.0,0007.82,0003.65,0003.37
2023-07-04 19:04:00,SystemResetWarning,0832.4,5.00,000.00,028.9,027.1,000.0,037.3,030.6,24.0,0000.0,0007.36,0003.64,0003.38
2023-07-04 19:05:00,SystemResetWarning,0832.3,5.00,000.00,029.0,027.4,000.0,037.3,030.7,24.4,0000.0,0008.09,0003.67,0003.39
2023-07-04 19:06:00,SystemResetWarning,0832.3,5.00,000.00,029.0,027.6,000.0,037.4,030.7,24.9,0000.0,0008.18,0003.69,0003.41
2023-07-04 19:07:00,SystemResetWarning,0832.3,4.99,000.00,029.0,027.0,000.0,037.3,030.7,25.0,0000.0,0008.28,0003.71,0003.42
2023-07-04 19:08:00,SystemResetWarning,0832.3,5.00,000.00,029.0,025.3,000.0,037.2,030.4,25.5,0000.0,0008.42,0003.68,0003.42
2023-07-04 19:09:00,SystemResetWarning,0832.3,5.01,000.00,028.9,024.8,000.0,037.1,030.3,25.4,0000.0,0008.50,0003.68,0003.42
2023-07-04 19:10:00,SystemResetWarning,0832.3,5.00,000.00,028.8,025.1,000.0,037.1,030.1,25.4,0000.0,0008.23,0003.69,0003.43
2023-07-04 19:11:00,SystemResetWarning,0832.3,4.99,000.00,028.8,025.5,000.0,037.2,030.1,25.8,0000.0,0008.10,0003.69,0003.44
2023-07-04 19:12:00,SystemResetWarning,0832.3,5.00,000.00,028.8,026.0,000.0,037.2,030.2,26.4,0000.0,0008.19,0003.72,0003.44
2023-07-04 19:13:00,SystemResetWarning,0832.3,5.00,000.00,028.8,026.4,000.0,037.2,030.3,25.1,0000.0,0008.18,0003.73,0003.45
2023-07-04 19:14:00,SystemResetWarning,0832.3,4.98,000.00,028.8,026.8,000.0,037.3,030.4,25.2,0000.0,0008.36,0003.73,0003.45
2023-07-04 19:15:00,SystemResetWarning,0832.2,5.00,000.00,028.8,027.1,000.0,037.3,030.5,25.2,0000.0,0009.31,0003.74,0003.46
2023-07-04 19:16:00,SystemResetWarning,0832.2,5.01,000.00,028.9,027.4,000.0,037.3,030.6,25.7,0000.0,0008.70,0003.71,0003.46
2023-07-04 19:17:00,SystemResetWarning,0832.2,5.00,000.00,028.9,027.6,000.0,037.3,030.7,25.7,0000.0,0008.69,0003.70,0003.46
2023-07-04 19:18:00,SystemResetWarning,0832.2,5.00,000.00,029.0,027.8,000.0,037.3,030.7,25.5,0000.0,0008.79,0003.72,0003.48
2023-07-04 19:19:00,SystemResetWarning,0832.1,4.99,000.00,029.0,026.6,000.0,037.2,030.7,26.3,0000.0,0008.62,0003.74,0003.48
2023-07-04 19:20:00,SystemResetWarning,0832.1,5.00,000.00,028.9,025.0,000.0,037.1,030.4,25.9,0000.0,0008.36,0003.74,0003.48
2023-07-04 19:21:00,SystemResetWarning,0832.0,5.01,000.00,028.9,024.8,000.0,037.1,030.3,25.2,0000.0,0008.32,0003.72,0003.48
2023-07-04 19:22:00,SystemResetWarning,0832.1,5.01,000.00,028.8,025.2,000.0,037.1,030.2,25.1,0000.0,0008.06,0003.72,0003.47
2023-07-04 19:23:00,SystemResetWarning,0832.1,4.99,000.00,028.7,025.7,000.0,037.2,030.2,25.2,0000.0,0008.47,0003.72,0003.47
2023-07-04 19:24:00,SystemResetWarning,0832.1,5.00,000.00,028.8,026.1,000.0,037.2,030.3,25.7,0000.0,0008.58,0003.73,0003.47
2023-07-04 19:25:00,SystemResetWarning,0832.1,5.00,000.00,028.8,026.5,000.0,037.2,030.4,26.6,0000.0,0008.59,0003.72,0003.47
2023-07-04 19:26:00,SystemResetWarning,0832.1,5.01,000.00,028.8,026.9,000.0,037.2,030.4,24.8,0000.0,0007.63,0003.72,0003.47
2023-07-04 19:27:00,SystemResetWarning,0832.1,5.00,000.00,028.8,027.2,000.0,037.3,030.5,25.3,0000.0,0007.48,0003.73,0003.46
2023-07-04 19:28:00,SystemResetWarning,0832.1,4.99,000.00,028.9,027.5,000.0,037.3,030.6,25.3,0000.0,0007.37,0003.73,0003.45
2023-07-04 19:29:00,SystemResetWarning,0832.1,5.00,000.00,028.9,027.7,000.0,037.3,030.7,25.7,0000.0,0007.34,0003.73,0003.43
2023-07-04 19:30:00,SystemResetWarning,0832.2,5.02,000.00,029.0,027.9,000.0,037.3,030.7,26.6,0000.0,0007.01,0003.73,0003.42
2023-07-04 19:31:00,SystemResetWarning,0832.2,4.98,000.00,029.0,027.2,000.0,037.3,030.7,26.2,0000.0,0007.02,0003.74,0003.42
2023-07-04 19:32:00,SystemResetWarning,0832.1,5.00,000.00,029.0,025.4,000.0,037.2,030.5,26.8,0000.0,0006.99,0003.74,0003.41
2023-07-04 19:33:00,SystemResetWarning,0832.2,5.02,000.00,028.9,024.8,000.0,037.1,030.3,25.5,0000.0,0007.16,0003.76,0003.41
2023-07-04 19:34:00,SystemResetWarning,0832.2,5.00,000.00,028.8,025.1,000.0,037.1,030.2,23.6,0000.0,0006.80,0003.79,0003.40
2023-07-04 19:35:00,SystemResetWarning,0832.2,5.00,000.00,028.8,025.5,000.0,037.2,030.2,24.2,0000.0,0006.37,0003.76,0003.38
2023-07-04 19:36:00,SystemResetWarning,0832.2,5.00,000.00,028.8,026.0,000.0,037.2,030.3,24.5,0000.0,0006.67,0003.73,0003.38
2023-07-04 19:37:00,SystemResetWarning,0832.2,4.99,000.00,028.8,026.4,000.0,037.2,030.3,24.5,0000.0,0006.75,0003.71,0003.37
2023-07-04 19:38:00,SystemResetWarning,0832.3,5.00,000.00,028.8,026.8,000.0,037.2,030.4,25.0,0000.0,0006.51,0003.69,0003.35
2023-07-04 19:39:00,SystemResetWarning,0832.3,5.02,000.00,028.8,027.1,000.0,037.3,030.5,25.2,0000.0,0006.41,0003.69,0003.35
2023-07-04 19:40:00,SystemResetWarning,0832.3,4.98,000.00,028.9,027.4,000.0,037.3,030.6,25.4,0000.0,0006.48,0003.68,0003.34
2023-07-04 19:41:00,SystemResetWarning,0832.2,5.00,000.00,028.9,027.6,000.0,037.3,030.7,24.9,0000.0,0006.57,0003.67,0003.34
2023-07-04 19:42:00,SystemResetWarning,0832.2,5.01,000.00,029.0,027.8,000.0,037.3,030.7,24.6,0000.0,0006.36,0003.63,0003.33
2023-07-04 19:43:00,SystemResetWarning,0832.2,5.01,000.00,029.0,027.5,000.0,037.3,030.8,24.4,0000.0,0006.36,0003.64,0003.33
2023-07-04 19:44:00,SystemResetWarning,0832.2,4.98,000.00,029.0,025.8,000.0,037.2,030.6,24.3,0000.0,0006.37,0003.64,0003.32
2023-07-04 19:45:00,SystemResetWarning,0832.2,5.02,000.00,028.9,024.8,000.0,037.1,030.3,23.5,0000.0,0005.99,0003.61,0003.32
2023-07-04 19:46:00,SystemResetWarning,0832.2,5.01,000.00,028.9,025.0,000.0,037.1,030.2,24.5,0000.0,0005.83,0003.59,0003.32
2023-07-04 19:47:00,SystemResetWarning,0832.2,4.99,000.00,028.8,025.3,000.0,037.1,030.1,26.7,0000.0,0005.82,0003.62,0003.32
2023-07-04 19:48:00,SystemResetWarning,0832.2,5.01,000.00,028.8,025.8,000.0,037.2,030.2,24.8,0000.0,0006.22,0003.66,0003.33
2023-07-04 19:49:00,SystemResetWarning,0832.2,5.01,000.00,028.8,026.3,000.0,037.2,030.3,24.4,0000.0,0007.10,0003.67,0003.34
2023-07-04 19:50:00,SystemResetWarning,0832.2,4.99,000.00,028.8,026.7,000.0,037.2,030.4,25.4,0000.0,0007.34,0003.70,0003.35
2023-07-04 19:51:00,SystemResetWarning,0832.2,4.99,000.00,028.8,027.0,000.0,037.3,030.5,24.9,0000.0,0007.35,0003.71,0003.36
2023-07-04 19:52:00,SystemResetWarning,0832.2,5.00,000.00,028.9,027.3,000.0,037.3,030.6,24.7,0000.0,0007.28,0003.71,0003.37
2023-07-04 19:53:00,SystemResetWarning,0832.2,5.01,000.00,028.9,027.5,000.0,037.3,030.6,25.3,0000.0,0007.27,0003.74,0003.39
2023-07-04 19:54:00,SystemResetWarning,0832.3,5.01,000.00,029.0,027.8,000.0,037.3,030.7,24.5,0000.0,0007.46,0003.75,0003.40
2023-07-04 19:55:00,SystemResetWarning,0832.3,5.00,000.00,029.0,027.1,000.0,037.3,030.7,24.8,0000.0,0007.55,0003.77,0003.42
2023-07-04 19:56:00,SystemResetWarning,0832.3,4.99,000.00,028.9,025.3,000.0,037.2,030.4,25.5,0000.0,0007.67,0003.78,0003.42
2023-07-04 19:57:00,SystemResetWarning,0832.3,5.02,000.00,028.9,024.7,000.0,037.1,030.3,25.5,0000.0,0008.37,0003.83,0003.43
2023-07-04 19:58:00,SystemResetWarning,0832.3,5.00,000.00,028.8,025.0,000.0,037.1,030.2,25.3,0000.0,0008.49,0003.87,0003.45
2023-07-04 19:59:00,SystemResetWarning,0832.3,5.00,000.00,028.7,025.4,000.0,037.1,030.1,26.4,0000.0,0008.27,0003.85,0003.46
